Baton Rouge, LA

6:49 PM CDT on October 14, 2019 (GMT -0500)
Baton Rouge Metro-Ryan

Weather History for KBTR - August, 2019

Change the Weather History Date:

Friday, August 2, 2019

  Actual Average Record
Temperature  
Mean Temperature 83 °F 83 °F  
Max Temperature 93 °F 93 °F 100 °F (1921)
Min Temperature 73 °F 74 °F 66 °F (1909)
Degree Days  
Heating Degree Days 0 0  
Month to date heating degree days 0 0  
Since 1 June heating degree days 0 0  
Since 1 July heating degree days 0 0  
Cooling Degree Days 18 18  
Month to date cooling degree days 36 36  
Year to date cooling degree days 1770 1641  
Since 1 June cooling degree days 1099 1076  
Growing Degree Days 32 (Base 50)    
Moisture  
Dew Point 72 °F    
Average Humidity 73    
Maximum Humidity 93    
Minimum Humidity 52    
Precipitation  
Precipitation 0.25 in 0.18 in 3.93 in (1908)
Month to date precipitation 0.25 0.37  
Year to date precipitation 41.67 36.26  
Snow  
Snow 0.00 in - - ()
Month to date snowfall 0.0  
Since 1 June snowfall 0.0  
Since 1 July snowfall 0.0  
Snow Depth 0.00 in    
Sea Level Pressure  
Sea Level Pressure 29.96 in    
Wind  
Wind Speed 3 mph (NNE)    
Max Wind Speed 16 mph    
Max Gust Speed 25 mph    
Visibility 10 miles    
Events Rain    
T = Trace of Precipitation, MM = Missing Value Source: NWS Daily Summary

Daily Weather History Graph

Daily Weather History Graph

Search for Another Location

Airport or City:

Astronomy

Aug. 02, 2019 Rise Set
Actual Time 6:23 AM CDT 7:58 PM CDT
Civil Twilight 5:57 AM CDT 8:24 PM CDT
Nautical Twilight 5:25 AM CDT 8:55 PM CDT
Astronomical Twilight 4:53 AM CDT 9:28 PM CDT
Moon 7:58 AM CDT (8/2) 9:33 PM CDT (8/2)
Length of Visible Light 14h 27m
Length of Day
13h 34m
Waxing Crescent, 4% of the Moon is Illuminated
Aug 2
Waxing Crescent
Aug 7
First Quarter
Aug 15
Full
Aug 23
Last Quarter
Aug 30
New

Hourly Weather History & Observations

Time (CDT) Temp. Heat Index Dew Point Humidity Pressure Visibility Wind Dir Wind Speed Gust Speed Precip Events Conditions
12:53 AM 75.0 °F - 72.0 °F 90% 29.99 in 10.0 mi Calm Calm - N/A   Clear
2:53 AM 73.9 °F - 71.1 °F 91% 29.98 in 10.0 mi NE 4.6 mph - N/A   Clear
3:53 AM 73.9 °F - 71.1 °F 91% 29.98 in 9.0 mi North 3.5 mph - N/A   Clear
4:53 AM 73.9 °F - 71.1 °F 91% 29.98 in 10.0 mi Calm Calm - N/A   Clear
5:53 AM 73.0 °F - 70.0 °F 90% 29.98 in 9.0 mi Calm Calm - N/A   Clear
6:53 AM 73.0 °F - 70.0 °F 90% 29.99 in 10.0 mi NE 3.5 mph - N/A   Clear
7:53 AM 78.1 °F - 72.0 °F 81% 29.99 in 10.0 mi Calm Calm - N/A   Clear
8:53 AM 81.0 °F 85.2 °F 72.0 °F 74% 30.00 in 10.0 mi Calm Calm - N/A   Clear
9:53 AM 84.0 °F 88.4 °F 70.0 °F 63% 30.00 in 10.0 mi Variable 3.5 mph - N/A   Clear
10:53 AM 88.0 °F 93.8 °F 71.1 °F 57% 30.00 in 10.0 mi Calm Calm - N/A   Scattered Clouds
11:53 AM 87.1 °F 94.5 °F 73.0 °F 63% 29.99 in 10.0 mi West 5.8 mph - N/A   Scattered Clouds
12:53 PM 89.1 °F 96.0 °F 72.0 °F 57% 29.97 in 10.0 mi NW 6.9 mph - N/A   Scattered Clouds
1:53 PM 89.1 °F 96.0 °F 72.0 °F 57% 29.95 in 10.0 mi Calm Calm - N/A   Mostly Cloudy
2:53 PM 91.9 °F 99.5 °F 72.0 °F 52% 29.92 in 10.0 mi North 8.1 mph - N/A   Scattered Clouds
3:53 PM 91.0 °F 97.6 °F 71.1 °F 52% 29.91 in 10.0 mi NNE 6.9 mph - N/A   Mostly Cloudy
4:19 PM 84.0 °F 90.2 °F 73.0 °F 69% 29.91 in 1.5 mi North 12.7 mph 25.3 mph 0.00 in Rain Rain
4:26 PM 82.0 °F 86.3 °F 71.1 °F 69% 29.91 in 10.0 mi South 8.1 mph 25.3 mph 0.21 in Rain Heavy Rain
4:53 PM 86.0 °F 95.1 °F 75.0 °F 70% 29.90 in 10.0 mi North 4.6 mph - 0.25 in   Scattered Clouds
5:53 PM 84.9 °F 90.7 °F 72.0 °F 65% 29.91 in 10.0 mi NNW 6.9 mph - 0.00 in Rain Light Rain
6:53 PM 80.1 °F 83.6 °F 71.1 °F 74% 29.95 in 10.0 mi SE 5.8 mph - 0.00 in Rain Light Rain
7:53 PM 77.0 °F - 71.1 °F 82% 29.94 in 10.0 mi SSW 9.2 mph - 0.00 in   Scattered Clouds
8:53 PM 75.9 °F - 71.1 °F 85% 29.95 in 10.0 mi Calm Calm - N/A   Clear
9:53 PM 75.9 °F - 72.0 °F 87% 29.94 in 10.0 mi NE 4.6 mph - N/A   Clear
10:53 PM 75.0 °F - 72.0 °F 90% 29.95 in 10.0 mi Calm Calm - N/A   Clear
11:53 PM 75.0 °F - 72.0 °F 90% 29.96 in 9.0 mi NE 3.5 mph - N/A   Clear